星链-2736 (STARLINK-2736 )

导读 | 星芒AI

STARLINK-2736 是 SpaceX Starlink 项目中的一颗低轨通信卫星,属于第 27 批发射的星链卫星群。该卫星旨在为全球用户提供高速互联网服务,尤其关注网络覆盖不足的地区。它运行在约 550 公里的轨道高度,采用先进的推进和通信技术,支持星间链路,提高数据传输效率。STARLINK-2736 的部署有助于完善 Starlink 卫星网络,增强其在全球范围内的服务能力和稳定性。

基本信息
目录编号:
48640
目录名称:
STARLINK-2736
国际标识:
2021-044C
轨道中心:
EARTH
卫星名称:
星链-2736
卫星全名:
星链-2736 (STARLINK-2736 )
卫星状态:
在轨 (已飞行1667 天)
发射日期:
2021-05-26 UTC
国别 :
美国 (US)
星等 :
--
轨道信息
数据来源 国际轨道数据 AOE轨道数据
星历时间 2025-12-18T00:46:58+0800
18小时前
查看轨道信息
2025-12-18T07:00:00+0800
12小时前
查看轨道信息
半长轴 6925.344km 6925.318km
偏心率 0.0001201 0.0001842
轨道倾角 53.055° 53.055°
近地点辐角 91.087° 70.681°
升交点赤经 124.970° 123.801°
平近点角 269.025° 255.103°
近地点 546.377km 545.907km
远地点 548.041km 548.459km
周期 95.592分钟 95.591分钟
每日圈数 15.064015 15.064101
详细信息
固有亮度:
5
最大亮度:
2.5
卫星平台:
Starlink V1.0
覆盖范围:
全球
运营商:
太空探索技术公司
运营商所在国:
美国
制造商(研发单位):
太空探索技术公司
制造商所在国:
美国
使用方式:
暂无
卫星简介
星链(Starlink)计划是由太空探索技术公司(SpaceX)提出的一个巨型低轨卫星互联网星座项目,计划在2019年至2024年间在太空搭建由约1.2万颗卫星组成的“星链”网络,其中1584颗将部署在地球上空550千米处的近地轨道,并从2020年开始工作。该卫星仍在工作。
2D轨道图
3D轨道图
轨道高度分析图
轨道倾角分析图
轨道综合分析图
查看轨道综合分析图